Weather History for KPTK - April, 2013

Change the Weather History Date:

Monday, April 29, 2013

  Actual Average Record
Temperature  
Mean Temperature 58 °F -  
Max Temperature 66 °F 61 °F 80 °F (2004)
Min Temperature 51 °F 39 °F 26 °F (2012)
Degree Days  
Heating Degree Days 6    
Growing Degree Days 8 (Base 50)    
Moisture  
Dew Point 51 °F    
Average Humidity 83    
Maximum Humidity 100    
Minimum Humidity 52    
Precipitation  
Precipitation 0.02 in - - ()
Sea Level Pressure  
Sea Level Pressure 29.89 in    
Wind  
Wind Speed 3 mph (West)    
Max Wind Speed 10 mph    
Max Gust Speed -    
Visibility 7 miles    
Events Fog    
Averages and records for this station are not official NWS values.
T = Trace of Precipitation, MM = Missing Value Source: NWS Daily Summary

Daily Weather History Graph

Daily Weather History Graph

Search for Another Location

Airport or City:

Trip Planner

Search our weather history database for the weather conditions in past years. The results will help you decide how hot, cold, wet, or windy it might be!

Date:

Astronomy

Apr. 29, 2013 Rise Set
Actual Time 6:30 AM EDT 8:32 PM EDT
Civil Twilight 6:00 AM EDT 9:02 PM EDT
Nautical Twilight 5:22 AM EDT 9:40 PM EDT
Astronomical Twilight 4:41 AM EDT 10:21 PM EDT
Moon 12:02 AM EDT (4/29) 9:48 AM EDT (4/29)
Length of Visible Light 15h 02m
Length of Day
14h 01m
Waning Gibbous, 80% of the Moon is Illuminated
Apr 29
Waning Gibbous
May 2
Last Quarter
May 9
New
May 18
First Quarter
May 25
Full

Hourly Weather History & Observations

Time (EDT) Temp. Dew Point Humidity Pressure Visibility Wind Dir Wind Speed Gust Speed Precip Events Conditions
12:06 AM 53.6 °F 51.8 °F 94% 29.84 in 0.5 mi Calm Calm - N/A Fog Fog
12:28 AM 51.8 °F 51.8 °F 100% 29.84 in 0.2 mi Calm Calm - N/A Fog Fog
12:53 AM 53.1 °F 52.0 °F 96% 29.84 in 0.2 mi Calm Calm - N/A Fog Fog
1:12 AM 51.8 °F 51.8 °F 100% 29.84 in 0.5 mi Calm Calm - 0.01 in Fog Fog
1:39 AM 53.6 °F 51.8 °F 94% 29.84 in 0.2 mi Calm Calm - 0.01 in Fog Fog
1:53 AM 53.1 °F 52.0 °F 96% 29.84 in 0.2 mi Calm Calm - 0.01 in Fog Fog
2:53 AM 52.0 °F 52.0 °F 100% 29.84 in 0.2 mi Calm Calm - N/A Fog Fog
3:53 AM 52.0 °F 52.0 °F 100% 29.85 in 0.2 mi Calm Calm - N/A Fog Fog
4:09 AM 53.6 °F 51.8 °F 94% 29.85 in 0.8 mi West 3.5 mph - N/A   Mist
4:53 AM 52.0 °F 52.0 °F 100% 29.86 in 0.5 mi West 3.5 mph - N/A Fog Fog
5:23 AM 53.6 °F 51.8 °F 94% 29.86 in 1.5 mi West 5.8 mph - N/A   Overcast
5:29 AM 51.8 °F 51.8 °F 100% 29.86 in 3.0 mi West 5.8 mph - N/A   Overcast
5:53 AM 53.1 °F 52.0 °F 96% 29.88 in 6.0 mi West 6.9 mph - N/A   Overcast
6:53 AM 52.0 °F 52.0 °F 100% 29.89 in 7.0 mi NW 5.8 mph - N/A   Overcast
7:18 AM 51.8 °F 51.8 °F 100% 29.89 in 9.0 mi NW 6.9 mph - N/A   Overcast
7:34 AM 51.8 °F 51.8 °F 100% 29.90 in 10.0 mi NW 4.6 mph - N/A   Overcast
7:53 AM 53.1 °F 51.1 °F 93% 29.90 in 9.0 mi Calm Calm - N/A   Overcast
8:23 AM 53.6 °F 51.8 °F 94% 29.90 in 10.0 mi WNW 6.9 mph - N/A   Overcast
8:53 AM 54.0 °F 52.0 °F 93% 29.91 in 10.0 mi NW 6.9 mph - N/A   Overcast
9:07 AM 55.4 °F 51.8 °F 88% 29.91 in 10.0 mi WNW 9.2 mph - N/A   Overcast
9:34 AM 55.4 °F 51.8 °F 88% 29.91 in 10.0 mi NW 9.2 mph - N/A   Overcast
9:53 AM 54.0 °F 51.1 °F 90% 29.93 in 10.0 mi West 9.2 mph - N/A   Overcast
10:33 AM 55.4 °F 51.8 °F 88% 29.93 in 10.0 mi West 8.1 mph - N/A   Overcast
10:53 AM 55.9 °F 50.0 °F 80% 29.93 in 10.0 mi West 6.9 mph - N/A   Overcast
11:53 AM 57.9 °F 50.0 °F 75% 29.93 in 10.0 mi West 5.8 mph - N/A   Overcast
12:53 PM 61.0 °F 50.0 °F 67% 29.92 in 10.0 mi NW 5.8 mph - 0.01 in   Overcast
1:53 PM 64.0 °F 51.1 °F 63% 29.91 in 10.0 mi Variable 3.5 mph - N/A   Mostly Cloudy
2:24 PM 64.4 °F 50.0 °F 59% 29.91 in 10.0 mi West 4.6 mph - N/A   Mostly Cloudy
2:53 PM 64.9 °F 48.9 °F 56% 29.90 in 10.0 mi Calm Calm - N/A   Mostly Cloudy
3:53 PM 66.0 °F 48.9 °F 54% 29.90 in 10.0 mi Variable 3.5 mph - N/A   Overcast
4:53 PM 66.0 °F 48.9 °F 54% 29.89 in 10.0 mi South 6.9 mph - N/A   Overcast
5:53 PM 66.9 °F 48.9 °F 52% 29.89 in 10.0 mi South 6.9 mph - N/A   Overcast
6:53 PM 66.9 °F 48.9 °F 52% 29.89 in 10.0 mi South 5.8 mph - N/A   Overcast
7:53 PM 64.9 °F 52.0 °F 63% 29.90 in 10.0 mi SSE 5.8 mph - N/A   Overcast
8:53 PM 63.0 °F 52.0 °F 67% 29.90 in 10.0 mi SE 8.1 mph - N/A   Overcast
9:53 PM 61.0 °F 52.0 °F 72% 29.92 in 10.0 mi SSE 10.4 mph - N/A   Overcast
10:53 PM 59.0 °F 51.1 °F 75% 29.93 in 10.0 mi SSE 5.8 mph - N/A   Mostly Cloudy
11:53 PM 59.0 °F 52.0 °F 78% 29.93 in 10.0 mi South 6.9 mph - N/A   Overcast